Skip Page Navigation
NASA JPL Caltech
NASA Logo - Jet Propulsion Laboratory + View the NASA Portal
+ Center for Near-Earth Object Studies
JPL Home Earth Solar System Stars & Galaxies Technology
JPL Solar System Dynamics
BODIES ORBITS EPHEMERIDES TOOLS PHYSICAL DATA DISCOVERY FAQ SITE MAP
JPL Small-Body Database Browser
Search: [ help ]  
243724 (2000 JG10)
Classification: Inner Main-belt Asteroid          SPK-ID: 2243724
Ephemeris | Orbit Diagram | Orbital Elements | Mission Design | Physical Parameters | Discovery Circumstances ]

[ show orbit diagram ]
Orbital Elements at Epoch 2459000.5 (2020-May-31.0) TDB
Reference: JPL 11 (heliocentric ecliptic J2000)
 Element Value Uncertainty (1-sigma)   Units 
e .05178312341489627 6.3081e-08  
a 1.876203791418884 9.8769e-09 au
q 1.779048098936344 1.1993e-07 au
i 19.77857184826552 1.0017e-05 deg
node 194.9225226135914 1.525e-05 deg
peri 127.2246589972375 9.7716e-05 deg
M 191.7621858800556 9.2416e-05 deg
tp 2459439.171638678875
(2021-Aug-12.67163868)
0.00024032 TDB
period 938.6818935474593
2.57
7.4123e-06
2.029e-08
d
yr
n .3835165059373744 3.0284e-09 deg/d
Q 1.973359483901425 1.0388e-08 au
  Orbit Determination Parameters
   # obs. used (total)      279  
   data-arc span      9597 days (26.28 yr)  
   first obs. used      1993-10-20  
   last obs. used      2020-01-29  
   planetary ephem.      DE431  
   SB-pert. ephem.      SB431-N16  
   condition code      0  
   norm. resid. RMS      .60455  
   source      ORB  
   producer      Otto Matic  
   solution date      2020-Feb-25 09:24:09  

Additional Information
 Earth MOID = .803545 au 
 Jupiter MOID = 3.13307 au 
 T_jup = 3.902 
[ show covariance matrix ]

Ephemeris | Orbit Diagram | Orbital Elements | Mission Design | Physical Parameters | Discovery Circumstances ]

Physical Parameter Table
Parameter Symbol Value Units Sigma Reference Notes
absolute magnitude H 17.4   n/a MPO437137  

243724 (2000 JG10)          Discovered 2000-May-04 by LINEAR at Socorro
Reference: 20100726/Numbers.arcLast Updated: 2010-07-28
Ephemeris | Orbit Diagram | Orbital Elements | Mission Design | Physical Parameters | Discovery Circumstances ]
ABOUT SSD CREDITS/AWARDS PRIVACY/COPYRIGHT GLOSSARY LINKS
FirstGov 2020-Sep-23 14:02 UT
(server date/time)  
NASA Home Page
Site Manager:   Ryan S. Park
Webmaster  Alan B. Chamberlin